Year,Month,Day,Hour,Minute,Value (Times are PST for temperature in C)
2009,08,18,08,06,16.60
2009,08,18,08,07,16.60
2009,08,18,08,08,16.70
2009,08,18,08,09,16.70
2009,08,18,08,10,16.80
2009,08,18,08,11,16.90
2009,08,18,08,12,17.00
2009,08,18,08,13,17.00
2009,08,18,08,14,17.10
2009,08,18,08,15,17.10
2009,08,18,08,16,17.20
2009,08,18,08,17,17.20
2009,08,18,08,18,17.30
2009,08,18,08,19,17.30
2009,08,18,08,20,17.40
2009,08,18,08,21,17.50
2009,08,18,08,22,17.50
2009,08,18,08,23,17.60
2009,08,18,08,24,17.60
2009,08,18,08,25,17.70
2009,08,18,08,26,17.70
2009,08,18,08,27,17.70
2009,08,18,08,28,17.70
2009,08,18,08,29,17.70
2009,08,18,08,30,17.80
2009,08,18,08,31,17.80
2009,08,18,08,32,17.90
2009,08,18,08,33,18.00
2009,08,18,08,34,18.20
2009,08,18,08,35,18.20
2009,08,18,08,36,18.30
2009,08,18,08,37,18.40
2009,08,18,08,38,18.40
2009,08,18,08,39,18.40
2009,08,18,08,40,18.40
2009,08,18,08,41,18.50
2009,08,18,08,42,18.50
2009,08,18,08,43,18.50
2009,08,18,08,44,18.50
2009,08,18,08,45,18.50
2009,08,18,08,46,18.50
2009,08,18,08,47,18.60
2009,08,18,08,48,18.60
2009,08,18,08,49,18.60
2009,08,18,08,50,18.60
2009,08,18,08,51,18.70
2009,08,18,08,52,18.80
2009,08,18,08,53,18.90
2009,08,18,08,54,18.90
2009,08,18,08,55,19.00
2009,08,18,08,56,19.10
2009,08,18,08,57,19.30
2009,08,18,08,58,19.40
2009,08,18,08,59,19.50
2009,08,18,09,00,19.50
2009,08,18,09,01,19.60
2009,08,18,09,02,19.70
2009,08,18,09,03,19.80
2009,08,18,09,04,19.80
2009,08,18,09,05,19.80
2009,08,18,09,06,19.80
2009,08,18,09,07,19.90
2009,08,18,09,08,20.00
2009,08,18,09,09,20.10
2009,08,18,09,10,20.10
2009,08,18,09,11,20.10
2009,08,18,09,12,20.20
2009,08,18,09,13,20.20
2009,08,18,09,14,20.20
2009,08,18,09,15,20.20
2009,08,18,09,16,20.20
2009,08,18,09,17,20.20
2009,08,18,09,18,20.20
2009,08,18,09,19,20.20
2009,08,18,09,20,20.30
2009,08,18,09,21,20.40
2009,08,18,09,22,20.40
2009,08,18,09,23,20.50
2009,08,18,09,24,20.60
2009,08,18,09,25,20.70
2009,08,18,09,26,20.70
2009,08,18,09,27,20.70
2009,08,18,09,28,20.70
2009,08,18,09,29,20.70
2009,08,18,09,30,20.70
2009,08,18,09,31,20.80
2009,08,18,09,32,20.80
2009,08,18,09,33,20.90
2009,08,18,09,34,21.00
2009,08,18,09,35,21.00
2009,08,18,09,36,21.10
2009,08,18,09,37,21.30
2009,08,18,09,38,21.30
2009,08,18,09,39,21.30
2009,08,18,09,40,21.40
2009,08,18,09,41,21.40
2009,08,18,09,42,21.40
2009,08,18,09,43,21.40
2009,08,18,09,44,21.50
2009,08,18,09,45,21.60
2009,08,18,09,46,21.60
2009,08,18,09,47,21.70
2009,08,18,09,48,21.80
2009,08,18,09,49,21.80
2009,08,18,09,50,21.70
2009,08,18,09,51,21.80
2009,08,18,09,52,21.80
2009,08,18,09,53,21.80
2009,08,18,09,54,21.80
2009,08,18,09,55,21.90
2009,08,18,09,56,22.00
2009,08,18,09,57,22.00
2009,08,18,09,58,22.00
2009,08,18,09,59,21.90
2009,08,18,10,00,21.80
2009,08,18,10,01,21.80
2009,08,18,10,02,21.80
2009,08,18,10,03,21.90
2009,08,18,10,04,22.00
2009,08,18,10,05,22.10
2009,08,18,10,06,22.10
2009,08,18,10,07,22.10
2009,08,18,10,08,22.10
2009,08,18,10,09,22.20
2009,08,18,10,10,22.30
2009,08,18,10,11,22.30
2009,08,18,10,12,22.10
2009,08,18,10,13,22.00
2009,08,18,10,14,22.00
2009,08,18,10,15,21.90
2009,08,18,10,16,21.90
2009,08,18,10,17,21.80
2009,08,18,10,18,21.60
2009,08,18,10,19,21.50
2009,08,18,10,20,21.40
2009,08,18,10,21,21.40
2009,08,18,10,22,21.40
2009,08,18,10,23,21.40
2009,08,18,10,24,21.40
2009,08,18,10,25,21.40
2009,08,18,10,26,21.30
2009,08,18,10,27,21.20
2009,08,18,10,28,21.20
2009,08,18,10,29,21.20
2009,08,18,10,30,21.30
2009,08,18,10,31,21.50
2009,08,18,10,32,21.60
2009,08,18,10,33,21.60
2009,08,18,10,34,21.60
2009,08,18,10,35,21.60
2009,08,18,10,36,21.50
2009,08,18,10,37,21.40
2009,08,18,10,38,21.40
2009,08,18,10,39,21.40
2009,08,18,10,40,21.50
2009,08,18,10,41,21.60
2009,08,18,10,42,21.60
2009,08,18,10,43,21.60
2009,08,18,10,44,21.50
2009,08,18,10,45,21.50
2009,08,18,10,46,21.60
2009,08,18,10,47,21.70
2009,08,18,10,48,21.80
2009,08,18,10,49,21.80
2009,08,18,10,50,21.70
2009,08,18,10,51,21.80
2009,08,18,10,52,22.00
2009,08,18,10,53,22.10
2009,08,18,10,54,22.20
2009,08,18,10,55,22.20
2009,08,18,10,56,22.20
2009,08,18,10,57,22.30
2009,08,18,10,58,22.40
2009,08,18,10,59,22.40
2009,08,18,11,00,22.50
2009,08,18,11,01,22.60
2009,08,18,11,02,22.60
2009,08,18,11,03,22.50
2009,08,18,11,04,22.60
2009,08,18,11,05,22.50
2009,08,18,11,06,22.40
2009,08,18,11,07,22.50
2009,08,18,11,08,22.60
2009,08,18,11,09,22.60
2009,08,18,11,10,22.70
2009,08,18,11,11,22.80
2009,08,18,11,12,22.90
2009,08,18,11,13,23.00
2009,08,18,11,14,23.10
2009,08,18,11,15,23.10
2009,08,18,11,16,22.80
2009,08,18,11,17,22.70
2009,08,18,11,18,22.70
2009,08,18,11,19,22.60
2009,08,18,11,20,22.50
2009,08,18,11,21,22.40
2009,08,18,11,22,22.40
2009,08,18,11,23,22.50
2009,08,18,11,24,22.60
2009,08,18,11,25,22.50
2009,08,18,11,26,22.60
2009,08,18,11,27,22.60
2009,08,18,11,28,22.50
2009,08,18,11,29,22.50
2009,08,18,11,30,22.50
2009,08,18,11,31,22.50
2009,08,18,11,32,22.50
2009,08,18,11,33,22.40
2009,08,18,11,34,22.30
2009,08,18,11,35,22.40
2009,08,18,11,36,22.50
2009,08,18,11,37,22.50
2009,08,18,11,38,22.60
2009,08,18,11,39,22.80
2009,08,18,11,40,22.80
2009,08,18,11,41,22.70
2009,08,18,11,42,22.50
2009,08,18,11,43,22.40
2009,08,18,11,44,22.40
2009,08,18,11,45,22.40
2009,08,18,11,46,22.40
2009,08,18,11,47,22.50
2009,08,18,11,48,22.30
2009,08,18,11,49,22.30
2009,08,18,11,50,22.20
2009,08,18,11,51,22.30
2009,08,18,11,52,22.20
2009,08,18,11,53,22.20
2009,08,18,11,54,22.30
2009,08,18,11,55,22.40
2009,08,18,11,56,22.50
2009,08,18,11,57,22.60
2009,08,18,11,58,22.60
2009,08,18,11,59,22.60
2009,08,18,12,00,22.60
2009,08,18,12,01,22.70
2009,08,18,12,02,22.80
2009,08,18,12,03,22.90
2009,08,18,12,04,22.90
2009,08,18,12,05,22.90
2009,08,18,12,06,23.10
2009,08,18,12,07,23.20
2009,08,18,12,08,23.30
2009,08,18,12,09,23.40
2009,08,18,12,10,23.50
2009,08,18,12,11,23.60
2009,08,18,12,12,23.60
2009,08,18,12,13,23.60
2009,08,18,12,14,23.70
2009,08,18,12,15,23.90
2009,08,18,12,16,24.10
2009,08,18,12,17,24.20
2009,08,18,12,18,24.30
2009,08,18,12,19,24.40
2009,08,18,12,20,24.60
2009,08,18,12,21,24.80
2009,08,18,12,22,24.80
2009,08,18,12,23,24.90
2009,08,18,12,24,24.90
2009,08,18,12,25,24.90
2009,08,18,12,26,24.80
2009,08,18,12,27,24.80
2009,08,18,12,28,24.70
2009,08,18,12,29,24.70
2009,08,18,12,30,24.90
2009,08,18,12,31,24.90
2009,08,18,12,32,24.90
2009,08,18,12,33,24.90
2009,08,18,12,34,24.80
2009,08,18,12,35,24.70
2009,08,18,12,36,24.70
2009,08,18,12,37,24.70
2009,08,18,12,38,24.50
2009,08,18,12,39,24.40
2009,08,18,12,40,24.40
2009,08,18,12,41,24.50
2009,08,18,12,42,24.50
2009,08,18,12,43,24.50
2009,08,18,12,44,24.40
2009,08,18,12,45,24.40
2009,08,18,12,46,24.50
2009,08,18,12,47,24.60
2009,08,18,12,48,24.60
2009,08,18,12,49,24.50
2009,08,18,12,50,24.20
2009,08,18,12,51,24.00
2009,08,18,12,52,24.00
2009,08,18,12,53,24.10
2009,08,18,12,54,24.20
2009,08,18,12,55,24.30
2009,08,18,12,56,24.50
2009,08,18,12,57,24.50
2009,08,18,12,58,24.50
2009,08,18,12,59,24.60
2009,08,18,13,00,24.50
2009,08,18,13,01,24.40
2009,08,18,13,02,24.40
2009,08,18,13,03,24.40
2009,08,18,13,04,24.30
2009,08,18,13,05,24.30
2009,08,18,13,06,24.40
2009,08,18,13,07,24.50
2009,08,18,13,08,24.60
2009,08,18,13,09,24.50
2009,08,18,13,10,24.50
2009,08,18,13,11,24.70
2009,08,18,13,12,24.70
2009,08,18,13,13,24.70
2009,08,18,13,14,24.80
2009,08,18,13,15,24.90
2009,08,18,13,16,24.70
2009,08,18,13,17,24.50
2009,08,18,13,18,24.50
2009,08,18,13,19,24.70
2009,08,18,13,20,24.80
2009,08,18,13,21,24.80
2009,08,18,13,22,24.60
2009,08,18,13,23,24.50
2009,08,18,13,24,24.70
2009,08,18,13,25,24.80
2009,08,18,13,26,24.90
2009,08,18,13,27,25.00
2009,08,18,13,28,25.00
2009,08,18,13,29,25.00
2009,08,18,13,30,25.00
2009,08,18,13,31,24.80
2009,08,18,13,32,24.60
2009,08,18,13,33,24.50
2009,08,18,13,34,24.40
2009,08,18,13,35,24.30
2009,08,18,13,36,24.30
2009,08,18,13,37,24.30
2009,08,18,13,38,24.30
2009,08,18,13,39,24.30
2009,08,18,13,40,24.10
2009,08,18,13,41,24.10
2009,08,18,13,42,24.20
2009,08,18,13,43,24.30
2009,08,18,13,44,24.40
2009,08,18,13,45,24.50
2009,08,18,13,46,24.60
2009,08,18,13,47,24.40
2009,08,18,13,48,24.30
2009,08,18,13,49,24.10
2009,08,18,13,50,24.00
2009,08,18,13,51,23.80
2009,08,18,13,52,23.70
2009,08,18,13,53,23.60
2009,08,18,13,54,23.60
2009,08,18,13,55,23.60
2009,08,18,13,56,23.60
2009,08,18,13,57,23.70
2009,08,18,13,58,23.70
2009,08,18,13,59,23.80
2009,08,18,14,00,23.90
2009,08,18,14,01,23.90
2009,08,18,14,02,23.90
2009,08,18,14,03,23.90
2009,08,18,14,04,23.90
2009,08,18,14,05,24.00
2009,08,18,14,06,24.10
2009,08,18,14,07,24.10
2009,08,18,14,08,24.10
2009,08,18,14,09,24.10
2009,08,18,14,10,24.30
2009,08,18,14,11,24.40
2009,08,18,14,12,24.60
2009,08,18,14,13,24.70
2009,08,18,14,14,24.70
2009,08,18,14,15,24.70
2009,08,18,14,16,24.80
2009,08,18,14,17,24.80
2009,08,18,14,18,24.80
2009,08,18,14,19,24.60
2009,08,18,14,20,24.50
2009,08,18,14,21,24.50
2009,08,18,14,22,24.60
2009,08,18,14,23,24.70
2009,08,18,14,24,24.80
2009,08,18,14,25,24.90
2009,08,18,14,26,24.90
2009,08,18,14,27,25.00
2009,08,18,14,28,25.20
2009,08,18,14,29,25.20
2009,08,18,14,30,25.20
2009,08,18,14,31,25.20
2009,08,18,14,32,25.20
2009,08,18,14,33,25.20
2009,08,18,14,34,25.10
2009,08,18,14,35,25.00
2009,08,18,14,36,25.10
2009,08,18,14,37,24.90
2009,08,18,14,38,24.80
2009,08,18,14,39,24.80
2009,08,18,14,40,24.80
2009,08,18,14,41,24.90
2009,08,18,14,42,25.10
2009,08,18,14,43,25.20
2009,08,18,14,44,25.30
2009,08,18,14,45,25.20
2009,08,18,14,46,25.10
2009,08,18,14,47,25.10
2009,08,18,14,48,25.20
2009,08,18,14,49,25.30
2009,08,18,14,50,25.40
2009,08,18,14,51,25.50
2009,08,18,14,52,25.50
2009,08,18,14,53,25.50
2009,08,18,14,54,25.30
2009,08,18,14,55,25.00
2009,08,18,14,56,25.10
2009,08,18,14,57,25.10
2009,08,18,14,58,25.20
2009,08,18,14,59,25.40
2009,08,18,15,00,25.50
2009,08,18,15,01,25.40
2009,08,18,15,02,25.30
2009,08,18,15,03,25.40
2009,08,18,15,04,25.50
2009,08,18,15,05,25.50
2009,08,18,15,06,25.70
2009,08,18,15,07,25.80
2009,08,18,15,08,25.80
2009,08,18,15,09,25.70
2009,08,18,15,10,25.70
2009,08,18,15,11,25.60
2009,08,18,15,12,25.40
2009,08,18,15,13,25.30
2009,08,18,15,14,25.40
2009,08,18,15,15,25.30
2009,08,18,15,16,25.20
2009,08,18,15,17,25.20
2009,08,18,15,18,25.20
2009,08,18,15,19,25.20
2009,08,18,15,20,25.30
2009,08,18,15,21,25.40
2009,08,18,15,22,25.40
2009,08,18,15,23,25.20
2009,08,18,15,24,25.10
2009,08,18,15,25,24.90
2009,08,18,15,26,24.80
2009,08,18,15,27,24.90
2009,08,18,15,28,25.00
2009,08,18,15,29,25.00
2009,08,18,15,30,25.00
2009,08,18,15,31,25.00
2009,08,18,15,32,25.00
2009,08,18,15,33,25.10
2009,08,18,15,34,25.10
2009,08,18,15,35,25.10
2009,08,18,15,36,25.10
2009,08,18,15,37,25.20
2009,08,18,15,38,25.40
2009,08,18,15,39,25.40
2009,08,18,15,40,25.40
2009,08,18,15,41,25.40
2009,08,18,15,42,25.30
2009,08,18,15,43,25.40
2009,08,18,15,44,25.40
2009,08,18,15,45,25.40
2009,08,18,15,46,25.40
2009,08,18,15,47,25.40
2009,08,18,15,48,25.40
2009,08,18,15,49,25.30
2009,08,18,15,50,25.20
2009,08,18,15,51,25.30
2009,08,18,15,52,25.30
2009,08,18,15,53,25.40
2009,08,18,15,54,25.30
2009,08,18,15,55,25.40
2009,08,18,15,56,25.50
2009,08,18,15,57,25.50
2009,08,18,15,58,25.60
2009,08,18,15,59,25.60
2009,08,18,16,00,25.70
2009,08,18,16,01,25.70
2009,08,18,16,02,25.50
2009,08,18,16,03,25.60
2009,08,18,16,04,25.60
2009,08,18,16,05,25.70
2009,08,18,16,06,25.80
2009,08,18,16,07,25.80
2009,08,18,16,08,25.90
2009,08,18,16,09,25.90
2009,08,18,16,10,26.00
2009,08,18,16,11,25.90
2009,08,18,16,12,25.60
2009,08,18,16,13,25.50
2009,08,18,16,14,25.50
2009,08,18,16,15,25.60
2009,08,18,16,16,25.70
2009,08,18,16,17,25.70
2009,08,18,16,18,25.60
2009,08,18,16,19,25.40
2009,08,18,16,20,25.20
2009,08,18,16,21,24.90
2009,08,18,16,22,24.80
2009,08,18,16,23,24.80
2009,08,18,16,24,24.90
2009,08,18,16,25,25.00
2009,08,18,16,26,25.10
2009,08,18,16,27,25.10
2009,08,18,16,28,25.00
2009,08,18,16,29,25.00
2009,08,18,16,30,25.00
2009,08,18,16,31,25.00
2009,08,18,16,32,25.00
2009,08,18,16,33,25.10
2009,08,18,16,34,25.10
2009,08,18,16,35,25.00
2009,08,18,16,36,24.90
2009,08,18,16,37,25.00
2009,08,18,16,38,25.10
2009,08,18,16,39,25.10
2009,08,18,16,40,25.20
2009,08,18,16,41,25.20
2009,08,18,16,42,25.20
2009,08,18,16,43,25.10
2009,08,18,16,44,25.10
2009,08,18,16,45,25.10
2009,08,18,16,46,25.10
2009,08,18,16,47,25.10
2009,08,18,16,48,25.10
2009,08,18,16,49,25.00
2009,08,18,16,50,25.10
2009,08,18,16,51,25.20
2009,08,18,16,52,25.30
2009,08,18,16,53,25.30
2009,08,18,16,54,25.30
2009,08,18,16,55,25.40
2009,08,18,16,56,25.40
2009,08,18,16,57,25.40
2009,08,18,16,58,25.50
2009,08,18,16,59,25.50
2009,08,18,17,00,25.50
2009,08,18,17,01,25.50
2009,08,18,17,02,25.60
2009,08,18,17,03,25.60
2009,08,18,17,04,25.70
2009,08,18,17,05,25.70
2009,08,18,17,06,25.80
2009,08,18,17,07,25.80
2009,08,18,17,08,25.90
2009,08,18,17,09,26.00
2009,08,18,17,10,26.10
2009,08,18,17,11,26.10
2009,08,18,17,12,26.00
2009,08,18,17,13,25.90
2009,08,18,17,14,25.90
2009,08,18,17,15,25.90
2009,08,18,17,16,25.80
2009,08,18,17,17,25.80
2009,08,18,17,18,25.80
2009,08,18,17,19,25.80
2009,08,18,17,20,25.80
2009,08,18,17,21,25.80
2009,08,18,17,22,25.60
2009,08,18,17,23,25.40
2009,08,18,17,24,25.40
2009,08,18,17,25,25.40
2009,08,18,17,26,25.30
2009,08,18,17,27,25.40
2009,08,18,17,28,25.60
2009,08,18,17,29,25.70
2009,08,18,17,30,25.70
2009,08,18,17,31,25.70
2009,08,18,17,32,25.80
2009,08,18,17,33,25.80
2009,08,18,17,34,25.70
2009,08,18,17,35,25.70
2009,08,18,17,36,25.60
2009,08,18,17,37,25.70
2009,08,18,17,38,25.90
2009,08,18,17,39,26.00
2009,08,18,17,40,26.10
2009,08,18,17,41,26.20
2009,08,18,17,42,26.20
2009,08,18,17,43,26.20
2009,08,18,17,44,26.20
2009,08,18,17,45,26.10
2009,08,18,17,46,26.10
2009,08,18,17,47,26.10
2009,08,18,17,48,26.10
2009,08,18,17,49,26.10
2009,08,18,17,50,26.10
2009,08,18,17,51,26.00
2009,08,18,17,52,25.90
2009,08,18,17,53,25.90
2009,08,18,17,54,26.00
2009,08,18,17,55,26.10
2009,08,18,17,56,26.20
2009,08,18,17,57,26.20
2009,08,18,17,58,26.30
2009,08,18,17,59,26.40
2009,08,18,18,00,26.40
2009,08,18,18,01,26.40
2009,08,18,18,02,26.20
2009,08,18,18,03,26.20
2009,08,18,18,04,26.10
2009,08,18,18,05,26.10
2009,08,18,18,06,26.20
2009,08,18,18,07,26.10
2009,08,18,18,08,26.20
2009,08,18,18,09,26.20
2009,08,18,18,10,26.30
2009,08,18,18,11,26.30
2009,08,18,18,12,26.30
2009,08,18,18,13,26.30
2009,08,18,18,14,26.30
2009,08,18,18,15,26.40
2009,08,18,18,16,26.40
2009,08,18,18,17,26.40
2009,08,18,18,18,26.40
2009,08,18,18,19,26.30
2009,08,18,18,20,26.30
2009,08,18,18,21,26.30
2009,08,18,18,22,26.30
2009,08,18,18,23,26.30
2009,08,18,18,24,26.30
2009,08,18,18,25,26.30
2009,08,18,18,26,26.30
2009,08,18,18,27,26.20
2009,08,18,18,28,26.10
2009,08,18,18,29,26.00
2009,08,18,18,30,26.00
2009,08,18,18,31,26.00
2009,08,18,18,32,26.00
2009,08,18,18,33,26.00
2009,08,18,18,34,26.00
2009,08,18,18,35,26.00
2009,08,18,18,36,26.00
2009,08,18,18,37,26.00
2009,08,18,18,38,26.00
2009,08,18,18,39,26.00
2009,08,18,18,40,26.00
